Home > Weather > Spartanburg > Past weeks

Flag for USA Past Weather in Spartanburg, South Carolina, USA — Yesterday and Last 2 Weeks

Now
81 °F

Scattered clouds.


Feels Like: 83 °F
Forecast: 71 / 88 °F
Wind: No wind

Location: Spartanburg Memorial

Current Time: Jun 27, 2016 at 10:57:08 AM

Latest Report: Jun 27, 2016 at 10:15 AM


Visibility: 10 mi

Pressure: 30.11 "Hg

Humidity: 66%

Dew Point: 68 °F

Location of SpartanburgLocation

Past Weather in Spartanburg — Graph

°F

Spartanburg Temperature Yesterday

Maximum temperature yesterday: 90 °F (at 4:35 PM)
Minimum temperature yesterday: 72 °F (at 6:35 AM)
Average temperature yesterday: 79 °F

High & Low Weather Summary for the Past Weeks

 TemperatureHumidityPressure
High95 °F (Jun 12, 4:15 PM)94% (Jun 14, 6:35 AM)30.41 "Hg (Jun 14, 6:35 AM)
Low55 °F (Jun 20, 6:35 AM)20% (Jun 16, 6:35 PM)29.74 "Hg (Jun 17, 4:15 AM)
Average80 °F55%30.04 "Hg
* Reported Jun 12 9:15 AM — Jun 27 9:35 AM, Spartanburg, Weather by CustomWeather, © 2016

Note: Actual official high and low records may vary slightly from our data, if they occured in-between our weather recording intervals... More about our weather records

Advertising

Spartanburg Weather History for the Previous 24 Hours

Scroll right to see more
 ConditionsComfort  
Time TempWeatherWind HumidityBarometerVisibility
9:35 AM
Mon, Jun 27
77 °FSunny.5 mph74%30.13 "Hg10 mi
9:15 AM77 °FSunny.5 mph74%30.13 "Hg10 mi
8:55 AM77 °FSunny.5 mph69%30.13 "Hg10 mi
8:35 AM75 °FScattered clouds.5 mph69%30.13 "Hg10 mi
8:15 AM73 °FCloudy.No wind74%30.13 "Hg10 mi
7:55 AM73 °FPartly sunny.No wind74%30.14 "Hg10 mi
7:35 AM72 °FScattered clouds.No wind78%30.13 "Hg10 mi
7:15 AM70 °FPartly cloudy.No wind83%30.13 "Hg10 mi
6:55 AM72 °FPassing clouds.No wind78%30.13 "Hg10 mi
6:35 AM70 °FClear.No wind83%30.13 "Hg10 mi
6:15 AM70 °FClear.No wind83%30.12 "Hg10 mi
5:55 AM70 °FClear.No wind78%30.13 "Hg10 mi
5:35 AM70 °FClear.No wind78%30.12 "Hg10 mi
5:15 AM72 °FPassing clouds.No wind73%30.12 "Hg10 mi
4:55 AM72 °FClear.No wind73%30.13 "Hg10 mi
4:35 AM72 °FPassing clouds.No wind73%30.13 "Hg10 mi
4:15 AM72 °FPassing clouds.3 mph78%30.13 "Hg10 mi
3:55 AM72 °FPassing clouds.No wind78%30.13 "Hg10 mi
3:35 AM72 °FPassing clouds.No wind78%30.13 "Hg10 mi
3:15 AM72 °FClear.No wind73%30.12 "Hg10 mi
2:55 AM72 °FClear.No wind78%30.12 "Hg10 mi
2:35 AM73 °FPassing clouds.No wind74%30.12 "Hg10 mi
2:15 AM73 °FPassing clouds.No wind74%30.13 "Hg10 mi
1:55 AM73 °FPassing clouds.3 mph69%30.13 "Hg10 mi
1:35 AM75 °FPassing clouds.No wind69%30.13 "Hg10 mi
1:15 AM75 °FPartly cloudy.No wind69%30.13 "Hg10 mi
12:55 AM77 °FMostly cloudy.No wind65%30.13 "Hg10 mi
12:35 AM75 °FPassing clouds.No wind74%30.13 "Hg10 mi
12:15 AM75 °FPassing clouds.No wind74%30.13 "Hg10 mi
11:55 PM
Sun, Jun 26
73 °FPassing clouds.No wind78%30.13 "Hg10 mi
11:35 PM75 °FPassing clouds.No wind74%30.12 "Hg10 mi
11:15 PM77 °FPassing clouds.No wind65%30.13 "Hg10 mi
10:55 PM77 °FPassing clouds.No wind65%30.13 "Hg10 mi
10:35 PM77 °FClear.No wind65%30.12 "Hg10 mi
10:15 PM79 °FClear.No wind61%30.11 "Hg10 mi
9:55 PM79 °FClear.3 mph61%30.10 "Hg10 mi
9:35 PM81 °FScattered clouds.3 mph58%30.10 "Hg10 mi
9:15 PM81 °FPartly sunny.3 mph58%30.10 "Hg10 mi
8:55 PM82 °FScattered clouds.3 mph55%30.11 "Hg10 mi
8:35 PM82 °FSunny.3 mph55%30.11 "Hg10 mi
8:15 PM84 °FSunny.3 mph51%30.11 "Hg10 mi
7:55 PM86 °FSunny.5 mph46%30.11 "Hg10 mi
7:35 PM86 °FSunny.3 mph46%30.11 "Hg5 mi
7:15 PM88 °FSunny.3 mph43%30.10 "Hg7 mi
6:55 PM86 °FScattered clouds.7 mph46%30.10 "Hg10 mi
6:35 PM90 °FScattered clouds.3 mph41%30.10 "Hg10 mi
6:15 PM88 °FSunny.5 mph43%30.10 "Hg10 mi
5:55 PM88 °FScattered clouds.5 mph43%30.10 "Hg10 mi
5:35 PM90 °FScattered clouds.9 mph41%30.10 "Hg10 mi
5:15 PM88 °FScattered clouds.5 mph40%30.10 "Hg10 mi
4:55 PM90 °FScattered clouds.6 mph41%30.10 "Hg10 mi
4:35 PM90 °FScattered clouds.No wind41%30.11 "Hg10 mi
4:15 PM88 °FSunny.7 mph43%30.12 "Hg10 mi
3:55 PM88 °FScattered clouds.8 mph43%30.13 "Hg10 mi
3:35 PM88 °FScattered clouds.No wind46%30.14 "Hg10 mi
3:15 PM88 °FScattered clouds.5 mph46%30.15 "Hg10 mi
2:55 PM88 °FScattered clouds.6 mph46%30.16 "Hg10 mi
2:35 PM88 °FScattered clouds.3 mph46%30.17 "Hg10 mi
1:55 PM82 °FBroken clouds.No wind55%30.19 "Hg10 mi
1:35 PM84 °FPartly sunny.3 mph51%30.19 "Hg10 mi
12:55 PM82 °FBroken clouds.No wind55%30.21 "Hg10 mi
12:35 PM81 °FBroken clouds.No wind62%30.22 "Hg10 mi
11:55 AM79 °FMore clouds than sun.No wind65%30.23 "Hg10 mi
11:35 AM79 °FMostly cloudy.No wind65%30.23 "Hg10 mi
11:15 AM79 °FCloudy.No wind70%30.23 "Hg10 mi
10:55 AM79 °FMostly cloudy.3 mph65%30.22 "Hg10 mi
10:35 AM79 °FPartly sunny.3 mph65%30.22 "Hg10 mi
10:15 AM77 °FOvercast.5 mph74%30.22 "Hg10 mi
Weather by CustomWeather, © 2016

See weather overviewHow to use our weather pages